Location: Home
(42.5358°N, 72.7383°W)
Time: 04:35:04
(UTC-04:00)

Vanguard 1 - Pass Details

Date: 04 June 2022
Orbit: 649 x 3832 km, 34.2° (Epoch: 24 June)

Event Time Altitude Azimuth Distance (km) Brightness Sun altitude
Rises 23:34:19 0° 232° (SW) 3,958 13.0 -22.7°
Reaches altitude 10° 23:36:40 10° 225° (SW) 3,272 12.5 -22.8°
Maximum altitude 23:44:40 46° 155° (SSE) 2,375 11.5 -23.2°
Drops below altitude 10° 23:59:02 10° 89° (E) 5,733 13.8 -23.9°
Sets 00:04:43 0° 85° (E) 7,204 14.4 -24.1°
